Flag for Mexico

Past Weather in 19°19'14"N, 99°04'36"W, Mexico — Yesterday and Last 2 Weeks

Now
59 °F

Partly cloudy.


Feels Like: 59 °F
Forecast: 73 / 56 °F
Wind: No wind

Location: Mexico City / Licenci

Current Time: Jul 11, 2020 at 7:03:07 am

Latest Report: Jul 11, 2020 at 5:44 am


Visibility: 12 mi

Pressure: 30.37 "Hg

Humidity: 59%

Dew Point: 45 °F

Location of 19°19'14"N, 99°04'36"WLocation

Past Weather in 19°19'14"N, 99°04'36"W — Graph

°F

19°19'14"N, 99°04'36"W Temperature Yesterday

Maximum temperature yesterday: 79 °F (at 3:45 pm)
Minimum temperature yesterday: 54 °F (at 5:21 am)
Average temperature yesterday: 66 °F

High & Low Weather Summary for the Past Weeks

 TemperatureHumidityPressure
High81 °F (Jun 29, 4:04 pm)94% (Jun 30, 3:00 am)30.44 "Hg (Jun 30, 3:00 am)
Low54 °F (Jul 10, 5:21 am)17% (Jul 2, 4:45 pm)29.64 "Hg (Jul 2, 3:45 pm)
Average67 °F59%30.17 "Hg
* Reported Jun 26 5:43 am — Jul 11 5:44 am, 19°19'14"N, 99°04'36"W. Weather by CustomWeather, © 2020

Note: Actual official high and low records may vary slightly from our data, if they occured in-between our weather recording intervals... More about our weather records

19°19'14"N, 99°04'36"W Weather History for the Previous 24 Hours

Scroll right to see more
 ConditionsComfort  
Time TempWeatherWind HumidityBarometerVisibility
5:44 am
Sat, Jul 11
59 °FPartly cloudy.No wind59%30.37 "Hg12 mi
4:45 am59 °FPartly cloudy.6 mph63%30.37 "Hg12 mi
3:45 am61 °FPartly cloudy.9 mph59%29.82 "Hg12 mi
2:45 am61 °FPartly cloudy.12 mph63%30.37 "Hg10 mi
1:45 am63 °FPartly cloudy.17 mph59%30.41 "Hg10 mi
12:47 am63 °FPartly cloudy.9 mph64%29.88 "Hg9 mi
11:45 pm
Fri, Jul 10
64 °FPartly cloudy.21 mph60%30.42 "Hg9 mi
10:45 pm66 °FPartly cloudy.12 mph56%30.40 "Hg9 mi
9:46 pm68 °FPartly cloudy.20 mph49%29.89 "Hg9 mi
8:45 pm68 °FPartly cloudy.14 mph53%30.35 "Hg10 mi
7:57 pm72 °FBroken clouds.16 mph47%30.32 "Hg8 mi
7:04 pm75 °FBroken clouds.20 mph36%30.31 "Hg10 mi
6:49 pm75 °FBroken clouds.20 mph36%29.83 "Hg10 mi
6:08 pm75 °FPartly sunny.17 mph36%30.28 "Hg10 mi
5:43 pm79 °FPartly sunny.20 mph32%30.29 "Hg10 mi
4:44 pm79 °FPartly sunny.14 mph32%30.30 "Hg10 mi
3:45 pm79 °FScattered clouds.12 mph30%29.78 "Hg10 mi
2:46 pm77 °FPassing clouds.12 mph30%30.35 "Hg10 mi
1:48 pm75 °FPassing clouds.14 mph29%30.37 "Hg8 mi
12:46 pm72 °FPassing clouds.6 mph41%29.90 "Hg6 mi
12:23 pm72 °FPassing clouds.No wind44%30.40 "Hg6 mi
11:48 am68 °FPassing clouds.6 mph49%30.42 "Hg6 mi
11:39 am68 °FPassing clouds.5 mph49%30.42 "Hg6 mi
10:42 am64 °FPassing clouds.7 mph60%30.42 "Hg6 mi
9:50 am61 °FPassing clouds.3 mph72%30.03 "Hg6 mi
8:47 am57 °FPassing clouds.6 mph82%30.43 "Hg6 mi
7:47 am55 °FPassing clouds.No wind82%30.42 "Hg8 mi
Weather by CustomWeather, © 2020

See weather overview